Météo par heure à Kyzyl-Tash

Ce jour, 5 Août, Jeudi

Heure Température Précipitation Vent Pression Humidité
00:00 +13°C° 0 mm 1 m/s 631 mmHg 81%
01:00 +13°C° 0 mm 1 m/s 631 mmHg 83%
02:00 +12°C° 0 mm 1 m/s 631 mmHg 84%
03:00 +12°C° 0 mm 1 m/s 631 mmHg 85%
04:00 +12°C° 0 mm 1 m/s 631 mmHg 84%
05:00 +13°C° 0 mm 1 m/s 631 mmHg 82%
06:00 +14°C° 0 mm 1 m/s 631 mmHg 81%
07:00 +15°C° 0.2 mm 1 m/s 631 mmHg 74%
08:00 +18°C° 0.2 mm 1 m/s 631 mmHg 67%
09:00 +19°C° 0.2 mm 1 m/s 631 mmHg 60%
10:00 +19°C° 0.3 mm 1 m/s 631 mmHg 58%
11:00 +19°C° 0.3 mm 2 m/s 631 mmHg 56%
12:00 +19°C° 0.3 mm 3 m/s 630 mmHg 53%
13:00 +19°C° 0.4 mm 2 m/s 630 mmHg 53%
14:00 +20°C° 0.4 mm 2 m/s 630 mmHg 52%
15:00 +20°C° 0.4 mm 2 m/s 630 mmHg 51%
16:00 +19°C° 0.5 mm 2 m/s 630 mmHg 55%
17:00 +18°C° 0.5 mm 2 m/s 630 mmHg 58%
18:00 +18°C° 0.5 mm 2 m/s 629 mmHg 61%
19:00 +16°C° 0.7 mm 2 m/s 630 mmHg 70%
20:00 +14°C° 0.7 mm 2 m/s 630 mmHg 80%
21:00 +13°C° 0.7 mm 2 m/s 630 mmHg 89%
22:00 +12°C° 0.2 mm 2 m/s 630 mmHg 90%
23:00 +12°C° 0.2 mm 1 m/s 630 mmHg 90%

Demain, 6 Août, Vendredi

Heure Température Précipitation Vent Pression Humidité
00:00 +12°C° 0.2 mm 1 m/s 629 mmHg 91%
01:00 +11°C° 0.1 mm 1 m/s 629 mmHg 90%
02:00 +11°C° 0.1 mm 1 m/s 629 mmHg 90%
03:00 +11°C° 0.1 mm 1 m/s 629 mmHg 89%
04:00 +11°C° 0.1 mm 1 m/s 629 mmHg 88%
05:00 +11°C° 0.1 mm 1 m/s 629 mmHg 88%
06:00 +12°C° 0.1 mm 1 m/s 629 mmHg 87%
07:00 +13°C° 0.3 mm 1 m/s 630 mmHg 82%
08:00 +14°C° 0.3 mm 2 m/s 630 mmHg 77%
09:00 +15°C° 0.3 mm 2 m/s 630 mmHg 73%
10:00 +15°C° 0.5 mm 2 m/s 630 mmHg 69%
11:00 +16°C° 0.5 mm 2 m/s 631 mmHg 65%
12:00 +17°C° 0.5 mm 3 m/s 631 mmHg 61%
13:00 +17°C° 0.5 mm 3 m/s 631 mmHg 61%
14:00 +17°C° 0.5 mm 3 m/s 631 mmHg 61%
15:00 +17°C° 0.5 mm 3 m/s 631 mmHg 61%
16:00 +17°C° 0.4 mm 3 m/s 631 mmHg 64%
17:00 +16°C° 0.4 mm 2 m/s 631 mmHg 67%
18:00 +16°C° 0.4 mm 2 m/s 631 mmHg 70%
19:00 +14°C° 0.3 mm 2 m/s 631 mmHg 76%
20:00 +13°C° 0.3 mm 2 m/s 631 mmHg 83%
21:00 +11°C° 0.3 mm 1 m/s 631 mmHg 89%
22:00 +11°C° 0 mm 1 m/s 631 mmHg 90%
23:00 +11°C° 0 mm 1 m/s 631 mmHg 91%

Après-demain, 7 Août, Samedi

Heure Température Précipitation Vent Pression Humidité
00:00 +10°C° 0 mm 1 m/s 631 mmHg 91%
01:00 +10°C° 0 mm 1 m/s 631 mmHg 92%
02:00 +10°C° 0 mm 1 m/s 631 mmHg 93%
03:00 +8°C° 0 mm 0 m/s 631 mmHg 94%
04:00 +9°C° 0 mm 0 m/s 631 mmHg 93%
05:00 +9°C° 0 mm 0 m/s 631 mmHg 92%
06:00 +10°C° 0 mm 0 m/s 632 mmHg 91%
07:00 +12°C° 0 mm 1 m/s 632 mmHg 84%
08:00 +14°C° 0 mm 1 m/s 633 mmHg 77%
09:00 +15°C° 0 mm 1 m/s 633 mmHg 71%
10:00 +16°C° 0 mm 2 m/s 633 mmHg 65%
11:00 +17°C° 0 mm 2 m/s 633 mmHg 59%
12:00 +19°C° 0 mm 2 m/s 633 mmHg 53%
13:00 +19°C° 0 mm 2 m/s 634 mmHg 51%
14:00 +19°C° 0 mm 2 m/s 634 mmHg 50%
15:00 +20°C° 0 mm 2 m/s 634 mmHg 48%
16:00 +19°C° 0 mm 2 m/s 634 mmHg 51%
17:00 +19°C° 0 mm 2 m/s 634 mmHg 53%
18:00 +19°C° 0 mm 2 m/s 634 mmHg 55%
19:00 +18°C° 0 mm 1 m/s 634 mmHg 61%
20:00 +15°C° 0 mm 1 m/s 633 mmHg 67%
21:00 +12°C° 0 mm 0 m/s 633 mmHg 73%
22:00 +12°C° 0 mm 0 m/s 633 mmHg 75%
23:00 +11°C° 0 mm 0 m/s 633 mmHg 76%

8 Août, Dimanche

Heure Température Précipitation Vent Pression Humidité
00:00 +11°C° 0 mm 0 m/s 633 mmHg 78%
01:00 +12°C° 0 mm 1 m/s 633 mmHg 78%
02:00 +11°C° 0 mm 1 m/s 632 mmHg 78%
03:00 +11°C° 0 mm 1 m/s 632 mmHg 78%
04:00 +12°C° 0 mm 1 m/s 633 mmHg 76%
05:00 +13°C° 0 mm 1 m/s 633 mmHg 74%
06:00 +13°C° 0 mm 1 m/s 633 mmHg 72%
07:00 +15°C° 0 mm 1 m/s 634 mmHg 64%
08:00 +19°C° 0 mm 1 m/s 634 mmHg 57%
09:00 +21°C° 0 mm 1 m/s 634 mmHg 49%
10:00 +22°C° 0 mm 1 m/s 634 mmHg 45%
11:00 +23°C° 0 mm 1 m/s 634 mmHg 41%
12:00 +25°C° 0 mm 1 m/s 634 mmHg 37%
13:00 +25°C° 0 mm 1 m/s 634 mmHg 35%
14:00 +26°C° 0 mm 1 m/s 634 mmHg 34%
15:00 +26°C° 0 mm 1 m/s 634 mmHg 32%
16:00 +25°C° 0 mm 1 m/s 634 mmHg 37%
17:00 +24°C° 0 mm 1 m/s 634 mmHg 41%
18:00 +23°C° 0 mm 2 m/s 634 mmHg 46%
19:00 +21°C° 0 mm 1 m/s 633 mmHg 52%
20:00 +20°C° 0 mm 1 m/s 633 mmHg 57%
21:00 +18°C° 0 mm 1 m/s 633 mmHg 63%
22:00 +16°C° 0.4 mm 1 m/s 633 mmHg 66%
23:00 +16°C° 0.4 mm 1 m/s 633 mmHg 68%

9 Août, Lundi

Heure Température Précipitation Vent Pression Humidité
00:00 +15°C° 0.4 mm 1 m/s 633 mmHg 71%
01:00 +15°C° 0.3 mm 1 m/s 633 mmHg 73%
02:00 +14°C° 0.3 mm 1 m/s 633 mmHg 75%
03:00 +14°C° 0.3 mm 1 m/s 632 mmHg 77%
04:00 +14°C° 0.1 mm 1 m/s 633 mmHg 76%
05:00 +15°C° 0.1 mm 1 m/s 633 mmHg 76%
06:00 +15°C° 0.1 mm 1 m/s 633 mmHg 75%
07:00 +18°C° 0.4 mm 1 m/s 633 mmHg 68%
08:00 +18°C° 0.4 mm 0 m/s 634 mmHg 61%
09:00 +19°C° 0.4 mm 0 m/s 634 mmHg 54%
10:00 +22°C° 0.1 mm 1 m/s 634 mmHg 50%
11:00 +23°C° 0.1 mm 1 m/s 634 mmHg 45%
12:00 +24°C° 0.1 mm 1 m/s 634 mmHg 41%
13:00 +25°C° 0 mm 1 m/s 634 mmHg 39%
14:00 +25°C° 0 mm 1 m/s 634 mmHg 38%
15:00 +25°C° 0 mm 1 m/s 633 mmHg 36%
16:00 +22°C° 0.9 mm 1 m/s 633 mmHg 49%
17:00 +20°C° 0.9 mm 1 m/s 633 mmHg 63%
18:00 +18°C° 0.9 mm 1 m/s 633 mmHg 77%
19:00 +16°C° 0.1 mm 1 m/s 633 mmHg 77%
20:00 +16°C° 0.1 mm 1 m/s 633 mmHg 78%
21:00 +15°C° 0.1 mm 1 m/s 633 mmHg 79%
22:00 +15°C° 0 mm 1 m/s 633 mmHg 77%
23:00 +14°C° 0 mm 1 m/s 633 mmHg 76%

10 Août, Mardi

Heure Température Précipitation Vent Pression Humidité
00:00 +14°C° 0 mm 2 m/s 632 mmHg 75%
01:00 +14°C° 0 mm 2 m/s 632 mmHg 75%
02:00 +14°C° 0 mm 2 m/s 632 mmHg 75%
03:00 +14°C° 0 mm 2 m/s 632 mmHg 76%
04:00 +14°C° 0 mm 2 m/s 632 mmHg 75%
05:00 +15°C° 0 mm 2 m/s 632 mmHg 75%
06:00 +15°C° 0 mm 2 m/s 632 mmHg 74%
07:00 +17°C° 0 mm 2 m/s 632 mmHg 67%
08:00 +19°C° 0 mm 2 m/s 632 mmHg 60%
09:00 +20°C° 0 mm 2 m/s 632 mmHg 53%
10:00 +21°C° 0.1 mm 2 m/s 632 mmHg 51%
11:00 +21°C° 0.1 mm 2 m/s 632 mmHg 50%
12:00 +21°C° 0.1 mm 2 m/s 632 mmHg 49%
13:00 +20°C° 0.3 mm 3 m/s 632 mmHg 52%
14:00 +20°C° 0.3 mm 3 m/s 632 mmHg 55%
15:00 +19°C° 0.3 mm 3 m/s 632 mmHg 58%
16:00 +19°C° 0 mm 3 m/s 632 mmHg 54%
17:00 +19°C° 0 mm 3 m/s 632 mmHg 51%
18:00 +20°C° 0 mm 3 m/s 631 mmHg 48%
19:00 +17°C° 0 mm 2 m/s 631 mmHg 55%
20:00 +15°C° 0 mm 2 m/s 631 mmHg 61%
21:00 +13°C° 0 mm 2 m/s 631 mmHg 68%
22:00 +13°C° 0 mm 2 m/s 631 mmHg 71%
23:00 +12°C° 0 mm 2 m/s 631 mmHg 73%
Voir plus

Nous avons besoin de votre consentement

Meteoprog et ses fournisseurs de services peuvent stocker et accéder à des données personnelles telles que des cookies, des identifiants d'appareils ou d'autres technologies similaires sur votre appareil et traiter ces données pour personnaliser le contenu et les publicités, ainsi que pour fournir des fonctionnalités de médias sociaux et analyser le trafic.

  • Stocker et/ou accéder à des informations sur votre appareil

    Des cookies, des identifiants d'appareils ou d'autres informations peuvent être stockés ou accessibles sur votre appareil aux fins indiquées ci-dessus.

  • Annonces et contenus personnalisés, mesure des annonces et des contenus, connaissance de l'audience et développement de produits

    Les annonces et le contenu peuvent être personnalisés en fonction d'un profil. D'autres données peuvent être ajoutées pour mieux personnaliser les annonces et le contenu. Les performances des publicités et du contenu peuvent être mesurées. Il est possible d'obtenir des informations sur le public qui a vu les publicités et le contenu. Ces données peuvent être utilisées pour développer ou améliorer l'expérience de l'utilisateur, les systèmes et les logiciels.

En cliquant sur "J'accepte", vous autorisez l'utilisation de cookies, des identifiants d'appareils, des balises web ou d'autres technologies similaires. Vos paramètres peuvent être modifiés dans le navigateur de votre appareil.

Dans certains cas, des intérêts légitimes peuvent être invoqués plutôt qu'un consentement. Vous pouvez en savoir plus à ce sujet dans notre Politique de confidentialité et de cookies.